Location: Fishcreek Rd Observing Site
(41.1865°N, 81.4271°W)
Time: 16:33:22
(UTC-05:00)

Iridium 75 - Visible Passes

Search period start: 30 January 2015 00:00
Search period end: 09 February 2015 00:00
Orbit: 776 x 779 km, 86.4° (Epoch: 29 January)

Date Brightness Start Highest point End Pass type
(mag) Time Alt. Az. Time Alt. Az. Time Alt. Az.
30 Jan 8.9 05:47:13 10° ESE 05:50:16 16° E 05:53:32 10° NE visible
30 Jan 8.3 19:36:37 10° NNW 19:40:51 25° W 19:44:58 10° SW visible
31 Jan 6.2 06:51:48 10° S 06:57:01 79° E 07:02:15 10° N visible
31 Jan 7.2 19:02:32 10° NNW 19:07:30 45° W 19:12:25 10° SSW visible
01 Feb 7.4 06:18:43 10° SSE 06:23:34 42° E 06:28:29 10° NNE visible
01 Feb 6.1 18:28:48 10° N 18:34:03 83° W 18:39:16 10° S visible
02 Feb 8.5 05:46:14 10° SE 05:50:13 23° E 05:54:21 10° NNE visible
02 Feb 8.9 19:37:22 10° NW 19:40:49 17° W 19:44:03 10° WSW visible
03 Feb 9.1 05:14:53 10° ESE 05:16:57 13° ENE 05:19:20 10° NE visible
03 Feb 6.0 06:51:55 10° S 06:57:06 73° W 07:02:21 10° N visible
03 Feb 8.0 19:02:54 10° NNW 19:07:31 31° W 19:12:01 10° SW visible
04 Feb 6.6 06:18:29 10° SSE 06:23:36 62° E 06:28:46 10° N visible
04 Feb 6.8 18:28:59 10° N 18:34:07 58° W 18:39:12 10° SSW visible
05 Feb 7.8 05:45:37 10° SSE 05:50:12 33° E 05:54:53 10° NNE visible
05 Feb 9.2 19:38:43 10° NW 19:40:44 12° WNW 19:42:27 10° W visible
06 Feb 8.7 05:13:28 10° ESE 05:16:53 19° E 05:20:30 10° NE visible
06 Feb 6.2 06:52:12 10° SSW 06:57:15 50° W 07:02:20 10° N visible
06 Feb 8.7 19:03:29 10° NNW 19:07:29 22° W 19:11:20 10° SW visible
07 Feb 6.0 06:18:28 10° S 06:23:41 89° E 06:28:56 10° N visible
07 Feb 7.6 18:29:17 10° NNW 18:34:09 40° W 18:38:57 10° SSW visible
08 Feb 7.0 05:45:15 10° SSE 05:50:13 48° E 05:55:14 10° NNE visible
